{"data":{"norad_id":65926,"epoch":"2026-05-25T01:19:10.062048Z","epoch_age_seconds":66325,"freshness":"FRESH","line1":"1 65926U 25225S   26145.05497757  .00008626  00000+0  30299-3 0  9993","line2":"2 65926  53.1586 170.7059 0000692  78.1242 281.9836 15.30202959 36101","mean_motion":15.30202959,"eccentricity":6.92e-5,"inclination_deg":53.1586,"raan_deg":170.7059,"arg_perigee_deg":78.1242,"mean_anomaly_deg":281.9836,"bstar":0.00030299,"rev_number":3610,"period_min":94.105163732075,"perigee_km":474.7319830411,"apogee_km":475.68048574474,"semimajor_km":6853.3432343929,"source":"CELESTRAK","updated_at":"2026-05-25T13:38:20.989568Z"}}